Tracking 19489 objects as of 23-Jan-2019
HD Live streaming from Space Station
objects crossing your sky now

SL-16 R/B

Track SL-16 R/B now!
10-day predictions
SL-16 R/B is classified as:


NORAD ID: 20625
Int'l Code: 1990-046B
Perigee: 838.9 km
Apogee: 862.5 km
Inclination: 71.0 °
Period: 101.8 minutes
Semi major axis: 7221 km
RCS: 14.0306 m2 (large)
Launch date: May 22, 1990
Source: Commonwealth of Independent States (former USSR) (CIS)
Launch site: TYURATAM MISSILE AND SPACE COMPLEX (TTMTR)

Note: This is a ROCKET BODY
aabbcc
Your satellite tracking list
Your tracking list is empty




NASA's NSSDC Master Catalog

Two Line Element Set (TLE):
1 20625U 90046B   19021.85698505 -.00000109 +00000-0 -31785-4 0  9993
2 20625 070.9989 004.1057 0016299 296.1348 063.8097 14.14634074480128
Source of the keplerian elements: AFSPC